Regional Weather Roundup
Issued by NWS

Home | Current Version | Previous Version | Text Only | Print | Product List | Glossary Off
Versions: 1 2 3 4 5 6 7 8 9 10 11 12 13 14 15 16 17 18 19 20 21 22 23 24 25 26 27 28 29 30 31 32 33 34 35 36 37 38 39 40 41 42 43 44 45 46 47 48 49 50

000
ASUS45 KABQ 281801
RWRNM
WEATHER ROUNDUP FOR NEW MEXICO
NATIONAL WEATHER SERVICE ALBUQUERQUE NM
1100 AM MST WED JAN 28 2015

NOTE: "FAIR" MEANS FEW OR NO CLOUDS BELOW 12,000 FEET AGL WITH NO
       SIGNIFICANT WEATHER OR OBSTRUCTIONS TO VISION.

      THIS PRODUCT IS RELEASED AS TWO VERSIONS.  ONE VERSION NEAR
      THE TOP OF THE HOUR CONTAINING PRELIMINARY DATA FROM ALBUQUERQUE
      AND OTHER STATIONS.  A FINAL VERSION WITH ADDITIONAL DATA IS
      ISSUED ABOUT 10 MINUTES AFTER THE HOUR.

NMZ501-503-504-510>518-281900-
NORTHWEST PLATEAU/NORTHCENTRAL MOUNTAINS

CITY           SKY/WX    TMP DP  RH WIND       PRES   REMARKS
FARMINGTON     SUNNY     46  32  58 CALM      30.29F
6HR MIN TEMP:  27; 6HR MAX TEMP:  46;

SANTA FE       SUNNY     53  30  41 N14       30.26S
6HR MIN TEMP:  34; 6HR MAX TEMP:  53;

TAOS           SUNNY     46  34  61 SW12      30.29F
ANGEL FIRE     FAIR      40  29  64 W18G25    30.27F WCI  31

$$
NMZ402-403-502-505>509-281900-
WESTCENTRAL MOUNTAINS/SOUTHWEST MOUNTAINS

CITY           SKY/WX    TMP DP  RH WIND       PRES   REMARKS
GALLUP         SUNNY     48  35  60 W3        30.32S
6HR MIN TEMP:  26; 6HR MAX TEMP:  48;

GRANTS         SUNNY     50  35  57 N8        30.32F
SILVER CITY    SUNNY     63  36  36 NW12G18   30.30F

$$
NMZ407-409-411-412-281900-
SOUTHERN DESERTS

CITY           SKY/WX    TMP DP  RH WIND       PRES   REMARKS
DEMING         SUNNY     62  37  39 CALM      30.26S
6HR MIN TEMP:  34; 6HR MAX TEMP:  62;

HOLLOMAN AFB   SUNNY     60  43  53 NW8       30.22F
ALAMOGORDO     SUNNY     61  41  48 SE3       30.24F
T OR C         SUNNY     59  37  44 VRB5      30.26F
6HR MIN TEMP:  39; 6HR MAX TEMP:  59;


$$
NMZ519>523-281900-
CENTRAL VALLEYS/CENTRAL HIGHLANDS

CITY           SKY/WX    TMP DP  RH WIND       PRES   REMARKS
ALBUQUERQUE    MOSUNNY   53  36  52 SW3       30.29R
6HR MIN TEMP:  33; 6HR MAX TEMP:  53;

DOUBLE EAGLE   MOSUNNY   54  32  43 NW12      30.30R
MORIARTY ARPT  FAIR      56  32  39 NW15      30.26R
6HR MIN TEMP:  35; 6HR MAX TEMP:  56;

CLINES CORNERS SUNNY     50  31  48 W36G45    30.20R
6HR MIN TEMP:  38; 6HR MAX TEMP:  50;

BELEN          FAIR      57  36  44 NW9       30.29S
6HR MIN TEMP:  30; 6HR MAX TEMP:  57;

SOCORRO        NOT AVBL

$$
NMZ524>526-539-540-281900-
SOUTHCENTRAL MOUNTAINS

CITY           SKY/WX    TMP DP  RH WIND       PRES   REMARKS
RUIDOSO        SUNNY     54  34  47 NW13G28   30.29R

$$
NMZ527>531-281900-
NORTHEAST HIGHLANDS/NORTHEAST PLAINS

CITY           SKY/WX    TMP DP  RH WIND       PRES   REMARKS
LAS VEGAS      SUNNY     57  23  26 SE9       30.15F
6HR MIN TEMP:  43; 6HR MAX TEMP:  57;

RATON          SUNNY     55  28  35 CALM      30.10F
6HR MIN TEMP:  29; 6HR MAX TEMP:  55;

CLAYTON        SUNNY     64  27  24 NW12      30.07S
6HR MIN TEMP:  42; 6HR MAX TEMP:  64;


$$
NMZ532>537-281900-
EASTCENTRAL PLAINS

CITY           SKY/WX    TMP DP  RH WIND       PRES   REMARKS
TUCUMCARI      SUNNY     65  35  33 W8        30.08S
6HR MIN TEMP:  43; 6HR MAX TEMP:  65;

CANNON AFB     SUNNY     63  35  35 W29G37    30.12S
6HR MIN TEMP:  43; 6HR MAX TEMP:  63;

CLOVIS AIRPORT SUNNY     64  37  36 W24G31    30.12F

$$
NMZ028-029-538-281900-
SOUTHEAST PLAINS

CITY           SKY/WX    TMP DP  RH WIND       PRES   REMARKS
ROSWELL        SUNNY     65  43  44 N5        30.15F
6HR MIN TEMP:  34; 6HR MAX TEMP:  65;

ARTESIA        SUNNY     63  45  51 E5        30.17F
CARLSBAD       SUNNY     67  43  41 E3        30.15F
6HR MIN TEMP:  38; 6HR MAX TEMP:  67;

HOBBS          SUNNY     68  39  34 W13       30.17F


$$


USA.gov is the U.S. government's official web portal to all federal, state and local government web resources and services.